SCP
0 0 0 0 0 0 0 0 0 0 0 0 0 0 1 0 0 0 1 1 1 1 0 0 0 0 0 0 0 0 0 0 0 0 0 0 0 0 0 0 0 0 0
0 0 0 0 0 0 0 0 0 0 0 0 0 0 1 0 0 0 0 1 1 1 0 0 0 0 0 0 0 0 0 0 0 0 0 0 0 0 0 0 0 0 0
0 0 0 0 0 0 0 0 0 0 0 0 0 0 0 1 1 0 1 0 1 1 1 0 0 0 0 0 0 0 0 0 0 0 0 0 0 0 0 0 0 -0 0
0 0 0 0 0 0 0 0 0 0 0 1 1 1 1 1 1 0 0 1 0 0 1 1 0 0 0 0 0 0 0 0 0 0 0 0 0 0 0 0 0 0 0
1 1 0 0 0 0 0 0 0 0 0 1 1 1 1 1 1 0 0 1 1 1 0 0 0 0 0 0 0 0 0 0 0 0 0 0 0 0 0 -0 -0 -0 -0
2 1 2 1 0 0 0 0 0 0 0 1 1 0 1 1 1 1 0 0 1 1 0 0 0 0 0 0 0 0 0 0 0 0 0 0 0 0 0 -0 -0 -0 0
4 3 2 2 2 1 0 0 0 0 1 1 1 1 1 1 0 0 0 0 0 0 0 0 0 0 0 0 0 0 0 0 0 0 0 0 0 0 0 0 0 -0 -0
5 4 4 4 1 2 1 1 1 1 0 0 0 1 1 0 0 0 0 0 0 0 0 0 0 0 0 0 0 0 0 -0 -0 0 0 0 0 0 0 0 -0 -0 -0
5 5 3 2 2 1 1 1 1 0 0 0 1 1 0 0 0 0 0 0 0 0 0 0 0 0 0 0 0 0 0 -0 -0 -0 0 0 0 0 0 -0 -0 -0 -0
5 4 3 2 2 1 1 1 1 0 0 0 1 1 0 0 0 0 0 0 0 0 0 0 0 0 0 0 0 0 0 -0 0 -0 0 0 0 0 -0 -0 -0 -0 -0
5 4 2 2 1 1 1 1 1 0 0 1 0 0 0 0 0 0 0 0 0 0 0 0 0 0 0 0 0 0 0 -0 -0 -0 0 0 0 0 -0 -0 -0 -0 -0
4 3 2 2 1 1 1 0 1 0 1 1 0 0 0 0 0 0 0 0 0 0 0 0 0 0 0 0 0 0 0 -0 -0 0 0 0 0 -0 -0 -0 -0 -0 -0
2 2 2 1 1 1 1 0 1 1 0 0 0 0 0 0 0 0 0 0 0 0 0 0 0 0 0 0 0 0 0 0 -0 0 0 0 -0 -0 -0 -0 -0 -0 -0
1 1 1 1 1 1 1 1 1 0 0 0 0 0 0 0 0 0 0 0 0 0 0 0 0 0 0 0 0 0 0 -0 -0 -0 0 0 -0 -0 -0 -0 -0 -0 -0
1 1 1 1 0 1 1 0 0 0 0 0 0 0 0 0 0 0 0 0 0 0 0 0 0 0 0 0 0 0 0 0 0 0 0 -0 -0 -0 0 0 0 -0 0
1 1 1 1 0 0 0 0 0 0 0 0 0 0 0 0 0 0 0 0 0 0 0 0 0 0 0 0 0 0 0 0 0 -0 -0 -0 -0 0 0 0 0 -0 0
1 1 0 0 0 0 0 0 0 0 0 0 0 0 0 0 0 0 0 0 0 -0 0 0 0 0 0 0 0 0 0 0 0 0 -0 0 0 0 0 0 0 0 0
0 0 0 0 0 0 0 0 0 0 0 0 0 0 0 0 0 0 0 0 0 0 0 0 0 0 0 0 0 0 0 0 0 0 0 0 0 0 0 0 0 0 0
0 0 0 0 0 0 0 0 0 0 0 0 0 0 0 0 0 0 0 0 0 0 0 0 0 0 0 0 0 0 0 0 0 0 0 0 0 0 0 0 0 0 0
0 0 0 0 0 0 0 0 0 0 0 0 0 0 0 0 0 0 0 0 0 0 0 0 0 0 0 0 0 0 0 0 0 0 0 0 0 0 0 0 0 0 0
0 0 0 0 0 0 0 0 0 0 0 0 0 0 0 0 0 0 0 0 0 0 0 0 0 0 0 0 0 0 0 0 0 0 0 0 0 0 0 0 0 0 0
0 0 0 0 0 0 0 0 0 0 0 0 0 0 0 0 0 0 0 0 0 0 0 0 0 0 0 0 0 0 0 0 0 0 0 0 0 0 0 0 0 0 0
0 0 0 0 0 0 0 0 0 0 0 0 0 0 -0 0 0 0 0 0 0 0 0 0 0 0 0 0 0 0 0 0 0 0 0 0 0 0 0 0 0 0 0
0 0 0 0 0 0 0 0 0 0 0 0 0 0 0 0 0 0 0 0 0 0 0 0 0 0 0 0 0 0 0 0 0 0 0 0 0 0 0 0 0 0 -0
0 0 0 -0 -0 0 0 0 0 0 0 -0 -0 0 0 0 0 0 0 0 0 0 0 0 0 0 0 0 0 0 0 0 0 0 0 0 0 0 0 0 0 0 0
0 0 0 -0 -0 0 0 0 0 0 0 -0 -0 0 0 0 0 0 0 0 0 0 0 0 0 0 0 0 0 0 0 0 0 0 0 0 0 0 0 0 0 0 -0
Wind_Speed_500mb
56 58 61 64 66 62 59 57 57 61 57 50 37 36 33 23 20 28 38 35 29 34 31 32 32 22 25 29 31 30 28 26 25 26 27 31 35 26 30 32 29 27 27
47 46 48 55 59 61 56 47 47 52 58 48 35 35 36 30 42 38 43 41 40 36 33 34 26 22 20 30 33 35 34 31 28 29 31 31 33 35 35 32 29 27 27
55 50 48 45 51 54 55 45 41 43 42 45 39 34 38 37 40 43 45 42 40 39 34 34 32 27 24 26 35 36 37 37 33 31 33 35 35 35 38 38 26 17 23
59 57 58 53 46 50 56 55 46 41 44 49 43 37 41 44 43 45 44 50 50 47 37 36 33 31 30 26 30 41 39 37 34 33 34 38 37 33 35 33 31 22 17
61 66 67 59 51 47 55 61 51 49 47 50 59 50 48 47 47 44 44 43 41 44 46 38 37 33 35 26 30 40 40 38 36 34 33 38 39 36 37 40 33 28 23
66 72 74 62 55 50 57 58 62 54 52 56 51 47 47 49 47 45 45 36 37 42 44 38 45 43 35 25 27 35 41 37 38 35 34 38 42 38 39 47 32 31 29
61 72 75 62 58 54 57 59 61 63 62 53 50 50 46 46 45 44 37 38 38 42 41 45 48 41 32 26 27 34 39 38 37 35 36 41 44 42 38 39 34 31 28
69 73 71 65 56 55 60 55 59 64 57 56 53 50 43 45 47 42 40 43 43 42 39 32 36 42 33 26 28 35 41 41 39 38 38 40 43 44 39 35 34 33 27
63 67 69 59 53 53 60 59 60 58 60 54 53 41 19 16 11 21 31 40 42 38 41 37 34 40 35 33 32 38 42 42 41 39 38 41 44 43 41 36 35 27 24
61 61 64 55 48 51 51 59 54 61 54 56 54 52 49 27 17 11 21 22 24 26 28 30 30 36 33 31 33 40 41 44 41 38 37 42 46 42 41 35 34 28 26
59 58 56 47 49 51 47 51 53 56 59 52 49 42 37 33 23 24 26 22 24 29 24 22 28 25 27 27 52 41 40 37 37 37 37 45 46 44 41 35 31 31 30
61 53 48 40 41 48 39 46 44 42 42 47 49 34 31 37 31 26 26 25 26 20 13 14 15 25 30 27 46 37 38 33 35 40 39 44 47 44 40 37 33 37 37
57 51 47 44 43 48 39 41 39 40 39 41 39 40 34 31 29 24 25 20 20 10 11 13 11 17 23 30 41 52 39 34 34 38 43 44 47 43 41 36 38 45 45
55 49 45 41 42 41 35 39 36 38 37 34 38 38 38 32 32 25 25 19 16 16 10 16 13 22 31 26 63 36 36 30 34 37 40 43 44 45 40 38 43 46 44
43 38 38 37 41 41 43 33 34 32 32 30 32 36 39 36 28 21 21 21 13 14 11 17 17 21 28 31 30 37 33 29 31 35 40 42 45 41 38 42 50 49 35
34 35 38 41 39 35 35 28 25 26 31 30 27 27 31 32 32 26 28 17 14 19 10 15 22 26 25 34 37 35 32 32 33 37 39 41 44 43 39 47 50 39 30
39 41 42 38 37 32 22 21 26 27 26 26 28 31 29 27 26 24 31 22 15 21 15 19 17 28 27 27 42 38 32 34 38 37 37 40 42 44 42 47 42 28 25
37 41 39 37 29 23 26 25 23 26 28 32 33 32 27 26 20 23 25 22 14 21 24 29 34 33 32 36 35 35 41 40 40 40 36 38 40 45 48 50 52 35 35
41 37 29 27 29 22 19 19 17 23 28 28 29 26 24 28 26 24 27 23 20 20 30 39 47 41 35 32 37 40 42 42 40 34 35 41 43 46 52 51 40 31 38
37 34 35 27 24 24 20 16 16 19 24 25 25 29 26 26 26 23 26 27 20 28 44 42 47 45 40 37 39 47 48 45 43 38 44 47 46 44 43 40 34 38 40
38 32 31 31 27 20 19 22 20 24 22 21 22 23 24 28 23 26 29 31 31 35 44 47 49 46 43 39 42 41 52 50 47 44 52 45 42 43 37 34 42 41 38
36 34 37 30 21 19 22 22 24 16 12 14 17 19 25 20 16 23 27 27 31 38 45 49 51 50 48 46 48 48 58 59 49 48 48 51 51 55 45 45 42 39 38
39 37 28 23 21 23 20 17 12 7 7 13 21 25 24 14 21 24 27 30 26 21 19 28 39 54 52 52 55 54 63 67 59 51 51 52 54 48 45 44 41 37 38
36 29 25 22 19 16 14 14 10 10 16 23 30 26 22 23 26 25 27 28 29 27 17 19 30 43 42 48 48 55 59 62 56 59 54 50 48 48 47 43 42 38 40
33 32 26 20 14 14 16 15 13 15 18 23 28 23 24 27 31 26 27 36 32 26 19 23 30 27 33 43 48 52 56 53 65 65 59 45 55 46 39 36 38 41 42
30 26 25 19 13 14 19 17 14 10 18 19 25 25 22 23 39 34 28 33 36 26 26 33 38 38 39 36 39 36 44 61 64 59 57 47 51 42 30 34 32 35 38
Wind_Direction_500mb
254 251 253 256 258 254 251 252 254 253 251 253 254 235 226 227 247 253 254 267 273 284 293 298 310 291 241 223 218 216 209 204 207 210 210 203 211 212 203 191 194 202 207
264 259 252 252 259 260 258 252 254 259 254 249 244 238 234 235 246 247 255 261 264 277 282 290 296 280 259 231 221 219 217 214 212 214 215 202 202 204 197 188 200 203 208
274 270 268 256 254 259 257 254 251 257 251 243 244 248 249 252 247 248 253 257 261 267 280 283 283 283 265 243 226 220 219 219 219 219 219 212 203 200 199 199 219 208 228
271 272 270 266 260 250 247 252 248 246 245 243 242 248 241 254 254 256 259 260 264 262 262 276 276 277 270 252 232 220 217 219 217 220 219 216 207 205 206 214 218 205 195
266 268 266 262 260 249 243 240 245 241 241 234 238 241 247 258 260 257 259 265 253 253 263 258 271 273 270 257 238 218 216 216 213 216 217 213 205 205 198 192 184 196 195
255 257 258 253 252 251 242 236 235 242 242 231 237 243 255 260 262 268 270 257 267 274 272 262 274 267 253 255 236 216 213 212 213 215 215 208 203 200 197 195 207 211 211
249 256 252 248 245 252 244 234 235 235 239 235 241 249 250 256 261 266 260 245 260 270 272 266 268 251 240 252 226 218 215 213 212 212 214 209 205 198 194 197 203 203 203
244 248 249 244 244 246 236 234 232 234 239 240 244 248 256 259 265 262 256 253 260 266 269 267 256 246 242 240 225 219 214 211 211 211 213 207 202 192 195 199 195 201 199
246 245 250 243 243 247 234 232 232 233 236 234 234 234 228 231 241 243 238 250 261 270 280 269 251 235 221 239 224 219 213 209 208 210 211 202 198 193 195 192 196 199 201
239 248 250 247 242 243 231 234 232 232 235 236 238 235 241 247 267 258 252 249 259 284 281 254 245 234 218 232 220 221 213 210 209 209 206 198 197 199 196 198 191 199 195
240 244 242 239 246 223 227 232 230 234 240 233 237 240 235 236 253 261 256 261 279 296 277 251 241 229 227 210 214 210 209 212 207 203 197 196 196 197 197 194 197 191 179
234 239 239 228 220 213 224 229 234 234 242 234 225 229 240 241 243 240 244 263 280 290 276 252 240 216 220 201 213 196 205 206 204 204 196 195 195 196 195 194 186 172 174
231 234 232 215 210 216 222 232 223 228 227 220 225 230 229 233 243 257 249 260 266 264 258 236 210 201 214 214 198 191 196 193 198 197 198 196 196 192 191 185 174 177 180
246 237 229 215 209 210 219 217 214 221 222 227 224 227 227 225 233 247 245 247 242 246 250 258 215 201 206 212 153 167 182 187 193 195 191 193 195 193 191 184 173 180 175
238 231 205 194 186 201 208 214 209 213 222 228 227 232 229 230 232 240 233 237 253 224 252 204 201 190 199 190 169 173 178 185 191 190 187 189 192 194 186 181 180 182 181
210 185 177 178 188 188 194 202 217 223 230 228 229 234 235 231 236 233 233 225 242 228 233 191 207 192 185 186 177 180 176 183 187 187 186 187 190 184 181 181 189 174 171
173 177 178 175 174 175 195 221 229 222 224 229 235 242 237 235 229 226 229 231 222 208 190 171 177 163 169 186 181 179 169 181 179 182 183 185 181 179 175 186 174 170 188
170 172 166 165 167 187 215 227 232 237 237 242 246 246 239 227 216 231 219 211 203 206 200 166 157 150 161 164 162 168 172 177 171 173 180 175 176 174 176 174 180 180 173
159 159 157 178 193 197 202 228 242 237 244 245 244 241 233 220 246 216 213 200 202 201 186 180 161 164 159 169 169 168 168 167 164 166 168 170 170 172 179 179 183 173 181
155 168 171 183 191 191 203 220 245 247 254 254 247 228 218 237 208 207 196 195 188 172 177 182 170 168 166 168 169 168 162 161 157 152 163 169 165 174 186 179 174 182 182
163 173 175 168 180 200 212 236 255 269 263 241 218 229 225 203 201 206 188 186 184 182 179 186 173 172 173 175 175 171 162 160 158 163 169 166 172 172 174 184 183 184 183
168 172 172 179 188 203 227 248 263 247 235 217 209 194 184 188 196 183 184 188 197 191 184 185 184 176 177 179 176 174 169 163 158 179 175 175 176 179 178 182 186 189 188
167 171 181 192 203 214 237 243 218 193 147 151 156 158 162 156 152 160 160 178 184 184 210 204 202 185 183 180 178 177 177 173 171 173 176 172 179 180 181 188 192 195 197
172 181 182 194 208 215 213 194 167 144 138 134 149 153 156 149 145 152 156 162 157 162 183 208 211 188 180 176 179 179 184 179 173 170 181 183 184 189 190 198 206 201 208
172 180 194 197 201 196 183 177 165 160 156 152 164 159 156 167 151 161 162 159 155 160 148 143 164 164 163 173 179 182 184 180 175 182 185 190 184 191 194 205 212 215 211
176 181 182 179 173 182 171 172 168 164 179 170 179 184 182 168 157 159 162 163 161 157 149 152 157 155 162 169 185 198 189 181 177 178 188 189 183 187 199 206 206 206 211
Wind_Speed_850mb
56 58 61 64 66 62 59 57 57 61 57 50 37 36 33 23 20 28 38 35 29 34 31 32 32 22 25 29 31 30 28 26 25 26 27 31 35 26 30 32 29 27 27
47 46 48 55 59 61 56 47 47 52 58 48 35 35 36 30 42 38 43 41 40 36 33 34 26 22 20 30 33 35 34 31 28 29 31 31 33 35 35 32 29 27 27
55 50 48 45 51 54 55 45 41 43 42 45 39 34 38 37 40 43 45 42 40 39 34 34 32 27 24 26 35 36 37 37 33 31 33 35 35 35 38 38 26 17 23
59 57 58 53 46 50 56 55 46 41 44 49 43 37 41 44 43 45 44 50 50 47 37 36 33 31 30 26 30 41 39 37 34 33 34 38 37 33 35 33 31 22 17
61 66 67 59 51 47 55 61 51 49 47 50 59 50 48 47 47 44 44 43 41 44 46 38 37 33 35 26 30 40 40 38 36 34 33 38 39 36 37 40 33 28 23
66 72 74 62 55 50 57 58 62 54 52 56 51 47 47 49 47 45 45 36 37 42 44 38 45 43 35 25 27 35 41 37 38 35 34 38 42 38 39 47 32 31 29
61 72 75 62 58 54 57 59 61 63 62 53 50 50 46 46 45 44 37 38 38 42 41 45 48 41 32 26 27 34 39 38 37 35 36 41 44 42 38 39 34 31 28
69 73 71 65 56 55 60 55 59 64 57 56 53 50 43 45 47 42 40 43 43 42 39 32 36 42 33 26 28 35 41 41 39 38 38 40 43 44 39 35 34 33 27
63 67 69 59 53 53 60 59 60 58 60 54 53 41 19 16 11 21 31 40 42 38 41 37 34 40 35 33 32 38 42 42 41 39 38 41 44 43 41 36 35 27 24
61 61 64 55 48 51 51 59 54 61 54 56 54 52 49 27 17 11 21 22 24 26 28 30 30 36 33 31 33 40 41 44 41 38 37 42 46 42 41 35 34 28 26
59 58 56 47 49 51 47 51 53 56 59 52 49 42 37 33 23 24 26 22 24 29 24 22 28 25 27 27 52 41 40 37 37 37 37 45 46 44 41 35 31 31 30
61 53 48 40 41 48 39 46 44 42 42 47 49 34 31 37 31 26 26 25 26 20 13 14 15 25 30 27 46 37 38 33 35 40 39 44 47 44 40 37 33 37 37
57 51 47 44 43 48 39 41 39 40 39 41 39 40 34 31 29 24 25 20 20 10 11 13 11 17 23 30 41 52 39 34 34 38 43 44 47 43 41 36 38 45 45
55 49 45 41 42 41 35 39 36 38 37 34 38 38 38 32 32 25 25 19 16 16 10 16 13 22 31 26 63 36 36 30 34 37 40 43 44 45 40 38 43 46 44
43 38 38 37 41 41 43 33 34 32 32 30 32 36 39 36 28 21 21 21 13 14 11 17 17 21 28 31 30 37 33 29 31 35 40 42 45 41 38 42 50 49 35
34 35 38 41 39 35 35 28 25 26 31 30 27 27 31 32 32 26 28 17 14 19 10 15 22 26 25 34 37 35 32 32 33 37 39 41 44 43 39 47 50 39 30
39 41 42 38 37 32 22 21 26 27 26 26 28 31 29 27 26 24 31 22 15 21 15 19 17 28 27 27 42 38 32 34 38 37 37 40 42 44 42 47 42 28 25
37 41 39 37 29 23 26 25 23 26 28 32 33 32 27 26 20 23 25 22 14 21 24 29 34 33 32 36 35 35 41 40 40 40 36 38 40 45 48 50 52 35 35
41 37 29 27 29 22 19 19 17 23 28 28 29 26 24 28 26 24 27 23 20 20 30 39 47 41 35 32 37 40 42 42 40 34 35 41 43 46 52 51 40 31 38
37 34 35 27 24 24 20 16 16 19 24 25 25 29 26 26 26 23 26 27 20 28 44 42 47 45 40 37 39 47 48 45 43 38 44 47 46 44 43 40 34 38 40
38 32 31 31 27 20 19 22 20 24 22 21 22 23 24 28 23 26 29 31 31 35 44 47 49 46 43 39 42 41 52 50 47 44 52 45 42 43 37 34 42 41 38
36 34 37 30 21 19 22 22 24 16 12 14 17 19 25 20 16 23 27 27 31 38 45 49 51 50 48 46 48 48 58 59 49 48 48 51 51 55 45 45 42 39 38
39 37 28 23 21 23 20 17 12 7 7 13 21 25 24 14 21 24 27 30 26 21 19 28 39 54 52 52 55 54 63 67 59 51 51 52 54 48 45 44 41 37 38
36 29 25 22 19 16 14 14 10 10 16 23 30 26 22 23 26 25 27 28 29 27 17 19 30 43 42 48 48 55 59 62 56 59 54 50 48 48 47 43 42 38 40
33 32 26 20 14 14 16 15 13 15 18 23 28 23 24 27 31 26 27 36 32 26 19 23 30 27 33 43 48 52 56 53 65 65 59 45 55 46 39 36 38 41 42
30 26 25 19 13 14 19 17 14 10 18 19 25 25 22 23 39 34 28 33 36 26 26 33 38 38 39 36 39 36 44 61 64 59 57 47 51 42 30 34 32 35 38
Wind_Direction_850mb
254 251 253 256 258 254 251 252 254 253 251 253 254 235 226 227 247 253 254 267 273 284 293 298 310 291 241 223 218 216 209 204 207 210 210 203 211 212 203 191 194 202 207
264 259 252 252 259 260 258 252 254 259 254 249 244 238 234 235 246 247 255 261 264 277 282 290 296 280 259 231 221 219 217 214 212 214 215 202 202 204 197 188 200 203 208
274 270 268 256 254 259 257 254 251 257 251 243 244 248 249 252 247 248 253 257 261 267 280 283 283 283 265 243 226 220 219 219 219 219 219 212 203 200 199 199 219 208 228
271 272 270 266 260 250 247 252 248 246 245 243 242 248 241 254 254 256 259 260 264 262 262 276 276 277 270 252 232 220 217 219 217 220 219 216 207 205 206 214 218 205 195
266 268 266 262 260 249 243 240 245 241 241 234 238 241 247 258 260 257 259 265 253 253 263 258 271 273 270 257 238 218 216 216 213 216 217 213 205 205 198 192 184 196 195
255 257 258 253 252 251 242 236 235 242 242 231 237 243 255 260 262 268 270 257 267 274 272 262 274 267 253 255 236 216 213 212 213 215 215 208 203 200 197 195 207 211 211
249 256 252 248 245 252 244 234 235 235 239 235 241 249 250 256 261 266 260 245 260 270 272 266 268 251 240 252 226 218 215 213 212 212 214 209 205 198 194 197 203 203 203
244 248 249 244 244 246 236 234 232 234 239 240 244 248 256 259 265 262 256 253 260 266 269 267 256 246 242 240 225 219 214 211 211 211 213 207 202 192 195 199 195 201 199
246 245 250 243 243 247 234 232 232 233 236 234 234 234 228 231 241 243 238 250 261 270 280 269 251 235 221 239 224 219 213 209 208 210 211 202 198 193 195 192 196 199 201
239 248 250 247 242 243 231 234 232 232 235 236 238 235 241 247 267 258 252 249 259 284 281 254 245 234 218 232 220 221 213 210 209 209 206 198 197 199 196 198 191 199 195
240 244 242 239 246 223 227 232 230 234 240 233 237 240 235 236 253 261 256 261 279 296 277 251 241 229 227 210 214 210 209 212 207 203 197 196 196 197 197 194 197 191 179
234 239 239 228 220 213 224 229 234 234 242 234 225 229 240 241 243 240 244 263 280 290 276 252 240 216 220 201 213 196 205 206 204 204 196 195 195 196 195 194 186 172 174
231 234 232 215 210 216 222 232 223 228 227 220 225 230 229 233 243 257 249 260 266 264 258 236 210 201 214 214 198 191 196 193 198 197 198 196 196 192 191 185 174 177 180
246 237 229 215 209 210 219 217 214 221 222 227 224 227 227 225 233 247 245 247 242 246 250 258 215 201 206 212 153 167 182 187 193 195 191 193 195 193 191 184 173 180 175
238 231 205 194 186 201 208 214 209 213 222 228 227 232 229 230 232 240 233 237 253 224 252 204 201 190 199 190 169 173 178 185 191 190 187 189 192 194 186 181 180 182 181
210 185 177 178 188 188 194 202 217 223 230 228 229 234 235 231 236 233 233 225 242 228 233 191 207 192 185 186 177 180 176 183 187 187 186 187 190 184 181 181 189 174 171
173 177 178 175 174 175 195 221 229 222 224 229 235 242 237 235 229 226 229 231 222 208 190 171 177 163 169 186 181 179 169 181 179 182 183 185 181 179 175 186 174 170 188
170 172 166 165 167 187 215 227 232 237 237 242 246 246 239 227 216 231 219 211 203 206 200 166 157 150 161 164 162 168 172 177 171 173 180 175 176 174 176 174 180 180 173
159 159 157 178 193 197 202 228 242 237 244 245 244 241 233 220 246 216 213 200 202 201 186 180 161 164 159 169 169 168 168 167 164 166 168 170 170 172 179 179 183 173 181
155 168 171 183 191 191 203 220 245 247 254 254 247 228 218 237 208 207 196 195 188 172 177 182 170 168 166 168 169 168 162 161 157 152 163 169 165 174 186 179 174 182 182
163 173 175 168 180 200 212 236 255 269 263 241 218 229 225 203 201 206 188 186 184 182 179 186 173 172 173 175 175 171 162 160 158 163 169 166 172 172 174 184 183 184 183
168 172 172 179 188 203 227 248 263 247 235 217 209 194 184 188 196 183 184 188 197 191 184 185 184 176 177 179 176 174 169 163 158 179 175 175 176 179 178 182 186 189 188
167 171 181 192 203 214 237 243 218 193 147 151 156 158 162 156 152 160 160 178 184 184 210 204 202 185 183 180 178 177 177 173 171 173 176 172 179 180 181 188 192 195 197
172 181 182 194 208 215 213 194 167 144 138 134 149 153 156 149 145 152 156 162 157 162 183 208 211 188 180 176 179 179 184 179 173 170 181 183 184 189 190 198 206 201 208
172 180 194 197 201 196 183 177 165 160 156 152 164 159 156 167 151 161 162 159 155 160 148 143 164 164 163 173 179 182 184 180 175 182 185 190 184 191 194 205 212 215 211
176 181 182 179 173 182 171 172 168 164 179 170 179 184 182 168 157 159 162 163 161 157 149 152 157 155 162 169 185 198 189 181 177 178 188 189 183 187 199 206 206 206 211